Year,Month,Day,Hour,Minute,Value (Times are PST for windspeed in km/hr)
2010,11,23,00,00,19.90
2010,11,23,00,01,18.70
2010,11,23,00,02,17.30
2010,11,23,00,03,18.30
2010,11,23,00,04,16.20
2010,11,23,00,05,15.90
2010,11,23,00,06,21.30
2010,11,23,00,07,15.90
2010,11,23,00,08,19.30
2010,11,23,00,09,20.80
2010,11,23,00,10,23.00
2010,11,23,00,11,13.30
2010,11,23,00,12,14.50
2010,11,23,00,13,25.10
2010,11,23,00,14,16.00
2010,11,23,00,15,17.30
2010,11,23,00,16,20.00
2010,11,23,00,17,23.70
2010,11,23,00,18,21.80
2010,11,23,00,19,19.70
2010,11,23,00,20,19.50
2010,11,23,00,21,17.30
2010,11,23,00,22,13.10
2010,11,23,00,23,20.20
2010,11,23,00,24,18.60
2010,11,23,00,25,24.30
2010,11,23,00,26,20.90
2010,11,23,00,27,21.30
2010,11,23,00,28,20.50
2010,11,23,00,29,19.80
2010,11,23,00,30,16.70
2010,11,23,00,31,26.30
2010,11,23,00,32,16.40
2010,11,23,00,33,14.40
2010,11,23,00,34,25.90
2010,11,23,00,35,17.20
2010,11,23,00,36,23.00
2010,11,23,00,37,22.90
2010,11,23,00,38,23.10
2010,11,23,00,39,22.50
2010,11,23,00,40,18.00
2010,11,23,00,41,12.50
2010,11,23,00,42,12.60
2010,11,23,00,43,13.50
2010,11,23,00,44,12.90
2010,11,23,00,45,14.10
2010,11,23,00,46,14.90
2010,11,23,00,47,17.20
2010,11,23,00,48,14.40
2010,11,23,00,49,8.40
2010,11,23,00,50,17.80
2010,11,23,00,51,15.20
2010,11,23,00,52,12.40
2010,11,23,00,53,8.90
2010,11,23,00,54,11.60
2010,11,23,00,55,13.30
2010,11,23,00,56,10.20
2010,11,23,00,57,8.10
2010,11,23,00,58,16.40
2010,11,23,00,59,16.10
2010,11,23,01,00,12.30
2010,11,23,01,01,15.10
2010,11,23,01,02,17.10
2010,11,23,01,03,19.90
2010,11,23,01,04,20.00
2010,11,23,01,05,11.50
2010,11,23,01,06,15.70
2010,11,23,01,07,17.30
2010,11,23,01,08,14.30
2010,11,23,01,09,13.40
2010,11,23,01,10,11.00
2010,11,23,01,11,17.60
2010,11,23,01,12,13.10
2010,11,23,01,13,16.60
2010,11,23,01,14,15.90
2010,11,23,01,15,12.20
2010,11,23,01,16,9.00
2010,11,23,01,17,9.80
2010,11,23,01,18,10.00
2010,11,23,01,19,13.30
2010,11,23,01,20,13.40
2010,11,23,01,21,11.30
2010,11,23,01,22,19.20
2010,11,23,01,23,19.00
2010,11,23,01,24,20.20
2010,11,23,01,25,13.00
2010,11,23,01,26,16.70
2010,11,23,01,27,18.90
2010,11,23,01,28,17.40
2010,11,23,01,29,10.90
2010,11,23,01,30,8.70
2010,11,23,01,31,12.20
2010,11,23,01,32,12.30
2010,11,23,01,33,12.20
2010,11,23,01,34,14.20
2010,11,23,01,35,13.00
2010,11,23,01,36,9.30
2010,11,23,01,37,14.60
2010,11,23,01,38,17.90
2010,11,23,01,39,15.40
2010,11,23,01,40,9.30
2010,11,23,01,41,9.90
2010,11,23,01,42,19.30
2010,11,23,01,43,11.90
2010,11,23,01,44,8.70
2010,11,23,01,45,13.40
2010,11,23,01,46,18.30
2010,11,23,01,47,18.90
2010,11,23,01,48,24.20
2010,11,23,01,49,17.10
2010,11,23,01,50,14.40
2010,11,23,01,51,14.10
2010,11,23,01,52,17.50
2010,11,23,01,53,13.20
2010,11,23,01,54,9.70
2010,11,23,01,55,20.40
2010,11,23,01,56,10.00
2010,11,23,01,57,14.90
2010,11,23,01,58,16.80
2010,11,23,01,59,15.30
2010,11,23,02,00,15.00
2010,11,23,02,01,10.00
2010,11,23,02,02,13.70
2010,11,23,02,03,11.60
2010,11,23,02,04,14.40
2010,11,23,02,05,15.30
2010,11,23,02,06,11.30
2010,11,23,02,07,15.50
2010,11,23,02,08,14.90
2010,11,23,02,09,24.20
2010,11,23,02,10,20.90
2010,11,23,02,11,19.40
2010,11,23,02,12,14.90
2010,11,23,02,13,14.70
2010,11,23,02,14,9.60
2010,11,23,02,15,19.60
2010,11,23,02,16,17.30
2010,11,23,02,17,15.40
2010,11,23,02,18,16.30
2010,11,23,02,19,14.80
2010,11,23,02,20,15.10
2010,11,23,02,21,6.50
2010,11,23,02,22,13.50
2010,11,23,02,23,17.90
2010,11,23,02,24,16.90
2010,11,23,02,25,18.70
2010,11,23,02,26,16.40
2010,11,23,02,27,16.00
2010,11,23,02,28,20.90
2010,11,23,02,29,10.90
2010,11,23,02,30,18.20
2010,11,23,02,31,19.90
2010,11,23,02,32,16.20
2010,11,23,02,33,18.90
2010,11,23,02,34,15.30
2010,11,23,02,35,18.40
2010,11,23,02,36,16.30
2010,11,23,02,37,11.10
2010,11,23,02,38,12.80
2010,11,23,02,39,16.50
2010,11,23,02,40,17.80
2010,11,23,02,41,26.20
2010,11,23,02,42,19.80
2010,11,23,02,43,16.90
2010,11,23,02,44,14.20
2010,11,23,02,45,14.80
2010,11,23,02,46,24.70
2010,11,23,02,47,12.50
2010,11,23,02,48,13.40
2010,11,23,02,49,11.60
2010,11,23,02,50,17.50
2010,11,23,02,51,6.70
2010,11,23,02,52,9.20
2010,11,23,02,53,13.50
2010,11,23,02,54,12.60
2010,11,23,02,55,12.10
2010,11,23,02,56,22.60
2010,11,23,02,57,9.60
2010,11,23,02,58,9.30
2010,11,23,02,59,8.60
2010,11,23,03,00,8.30
2010,11,23,03,01,7.40
2010,11,23,03,02,7.10
2010,11,23,03,03,15.00
2010,11,23,03,04,14.60
2010,11,23,03,05,13.90
2010,11,23,03,06,9.60
2010,11,23,03,07,3.90
2010,11,23,03,08,1.90
2010,11,23,03,09,4.40
2010,11,23,03,10,7.50
2010,11,23,03,11,4.70
2010,11,23,03,12,10.10
2010,11,23,03,13,12.10
2010,11,23,03,14,17.60
2010,11,23,03,15,5.00
2010,11,23,03,16,3.50
2010,11,23,03,17,6.00
2010,11,23,03,18,4.60
2010,11,23,03,19,6.30
2010,11,23,03,20,2.30
2010,11,23,03,21,3.70
2010,11,23,03,22,6.40
2010,11,23,03,23,2.20
2010,11,23,03,24,4.30
2010,11,23,03,25,3.50
2010,11,23,03,26,2.50
2010,11,23,03,27,4.30
2010,11,23,03,28,4.00
2010,11,23,03,29,7.40
2010,11,23,03,30,12.60
2010,11,23,03,31,9.50
2010,11,23,03,32,9.60
2010,11,23,03,33,12.10
2010,11,23,03,34,16.20
2010,11,23,03,35,13.00
2010,11,23,03,36,10.50
2010,11,23,03,37,10.30
2010,11,23,03,38,15.30
2010,11,23,03,39,16.80
2010,11,23,03,40,11.90
2010,11,23,03,41,14.70
2010,11,23,03,42,13.00
2010,11,23,03,43,14.00
2010,11,23,03,44,9.20
2010,11,23,03,45,14.10
2010,11,23,03,46,14.30
2010,11,23,03,47,8.50
2010,11,23,03,48,8.50
2010,11,23,03,49,18.40
2010,11,23,03,50,15.20
2010,11,23,03,51,11.80
2010,11,23,03,52,12.10
2010,11,23,03,53,6.80
2010,11,23,03,54,9.00
2010,11,23,03,55,10.20
2010,11,23,03,56,8.10
2010,11,23,03,57,11.70
2010,11,23,03,58,12.10
2010,11,23,03,59,10.80
2010,11,23,04,00,15.90
2010,11,23,04,01,11.00
2010,11,23,04,02,10.90
2010,11,23,04,03,13.90
2010,11,23,04,04,15.50
2010,11,23,04,05,17.50
2010,11,23,04,06,15.60
2010,11,23,04,07,11.70
2010,11,23,04,08,10.20
2010,11,23,04,09,12.60
2010,11,23,04,10,15.30
2010,11,23,04,11,14.70
2010,11,23,04,12,12.80
2010,11,23,04,13,8.90
2010,11,23,04,14,10.90
2010,11,23,04,15,9.60
2010,11,23,04,16,8.40
2010,11,23,04,17,6.90
2010,11,23,04,18,9.10
2010,11,23,04,19,10.00
2010,11,23,04,20,10.20
2010,11,23,04,21,16.10
2010,11,23,04,22,18.10
2010,11,23,04,23,13.30
2010,11,23,04,24,15.10
2010,11,23,04,25,11.90
2010,11,23,04,26,6.30
2010,11,23,04,27,10.70
2010,11,23,04,28,12.10
2010,11,23,04,29,12.10
2010,11,23,04,30,13.50
2010,11,23,04,31,15.00
2010,11,23,04,32,8.20
2010,11,23,04,33,9.90
2010,11,23,04,34,6.80
2010,11,23,04,35,12.50
2010,11,23,04,36,6.40
2010,11,23,04,37,11.80
2010,11,23,04,38,11.40
2010,11,23,04,39,12.90
2010,11,23,04,40,6.90
2010,11,23,04,41,9.70
2010,11,23,04,42,7.60
2010,11,23,04,43,10.60
2010,11,23,04,44,6.00
2010,11,23,04,45,5.10
2010,11,23,04,46,5.60
2010,11,23,04,47,13.00
2010,11,23,04,48,10.30
2010,11,23,04,49,15.00
2010,11,23,04,50,9.80
2010,11,23,04,51,11.50
2010,11,23,04,52,9.00
2010,11,23,04,53,13.30
2010,11,23,04,54,11.60
2010,11,23,04,55,11.00
2010,11,23,04,56,13.40
2010,11,23,04,57,14.90
2010,11,23,04,58,10.30
2010,11,23,04,59,14.10
2010,11,23,05,00,8.00
2010,11,23,05,01,3.70
2010,11,23,05,02,8.60
2010,11,23,05,03,7.80
2010,11,23,05,04,9.70
2010,11,23,05,05,10.00
2010,11,23,05,06,9.10
2010,11,23,05,07,9.60
2010,11,23,05,08,7.10
2010,11,23,05,09,9.20
2010,11,23,05,10,16.40
2010,11,23,05,11,15.30
2010,11,23,05,12,12.40
2010,11,23,05,13,11.90
2010,11,23,05,14,15.30
2010,11,23,05,15,17.10
2010,11,23,05,16,8.50
2010,11,23,05,17,11.50
2010,11,23,05,18,16.90
2010,11,23,05,19,7.70
2010,11,23,05,20,6.00
2010,11,23,05,21,11.50
2010,11,23,05,22,9.70
2010,11,23,05,23,12.90
2010,11,23,05,24,10.80
2010,11,23,05,25,9.00
2010,11,23,05,26,6.40
2010,11,23,05,27,11.00
2010,11,23,05,28,10.30
2010,11,23,05,29,7.70
2010,11,23,05,30,14.50
2010,11,23,05,31,12.10
2010,11,23,05,32,8.90
2010,11,23,05,33,10.50
2010,11,23,05,34,9.20
2010,11,23,05,35,15.90
2010,11,23,05,36,16.70
2010,11,23,05,37,13.60
2010,11,23,05,38,13.00
2010,11,23,05,39,7.80
2010,11,23,05,40,9.40
2010,11,23,05,41,17.50
2010,11,23,05,42,13.10
2010,11,23,05,43,14.00
2010,11,23,05,44,12.40
2010,11,23,05,45,13.10
2010,11,23,05,46,6.70
2010,11,23,05,47,8.90
2010,11,23,05,48,15.00
2010,11,23,05,49,11.40
2010,11,23,05,50,11.00
2010,11,23,05,51,14.40
2010,11,23,05,52,10.90
2010,11,23,05,53,10.10
2010,11,23,05,54,11.10
2010,11,23,05,55,9.90
2010,11,23,05,56,17.30
2010,11,23,05,57,15.90
2010,11,23,05,58,13.90
2010,11,23,05,59,13.60
2010,11,23,06,00,10.10
2010,11,23,06,01,4.50
2010,11,23,06,02,3.70
2010,11,23,06,03,6.30
2010,11,23,06,04,7.50
2010,11,23,06,05,9.70
2010,11,23,06,06,6.10
2010,11,23,06,07,11.20
2010,11,23,06,08,5.80
2010,11,23,06,09,0.50
2010,11,23,06,10,4.80
2010,11,23,06,11,8.80
2010,11,23,06,12,8.70
2010,11,23,06,13,9.30
2010,11,23,06,14,4.30
2010,11,23,06,15,2.80
2010,11,23,06,16,3.40
2010,11,23,06,17,3.70
2010,11,23,06,18,2.30
2010,11,23,06,19,21.70
2010,11,23,06,20,12.00
2010,11,23,06,21,15.40
2010,11,23,06,22,9.70
2010,11,23,06,23,7.00
2010,11,23,06,24,11.40
2010,11,23,06,25,10.10
2010,11,23,06,26,12.80
2010,11,23,06,27,13.90
2010,11,23,06,28,12.50
2010,11,23,06,29,7.30
2010,11,23,06,30,7.40
2010,11,23,06,31,16.10
2010,11,23,06,32,6.80
2010,11,23,06,33,5.50
2010,11,23,06,34,6.20
2010,11,23,06,35,16.70
2010,11,23,06,36,9.00
2010,11,23,06,37,12.20
2010,11,23,06,38,4.80
2010,11,23,06,39,10.10
2010,11,23,06,40,9.40
2010,11,23,06,41,16.20
2010,11,23,06,42,8.70
2010,11,23,06,43,2.80
2010,11,23,06,44,13.00
2010,11,23,06,45,4.00
2010,11,23,06,46,11.70
2010,11,23,06,47,15.80
2010,11,23,06,48,14.00
2010,11,23,06,49,12.90
2010,11,23,06,50,15.00
2010,11,23,06,51,6.20
2010,11,23,06,52,4.40
2010,11,23,06,53,6.90
2010,11,23,06,54,11.90
2010,11,23,06,55,6.00
2010,11,23,06,56,6.60
2010,11,23,06,57,8.90
2010,11,23,06,58,5.40
2010,11,23,06,59,6.70
2010,11,23,07,00,15.00
2010,11,23,07,01,15.00
2010,11,23,07,02,15.30
2010,11,23,07,03,11.30
2010,11,23,07,04,5.80
2010,11,23,07,05,10.90
2010,11,23,07,06,10.90
2010,11,23,07,07,9.90
2010,11,23,07,08,14.30
2010,11,23,07,09,8.00
2010,11,23,07,10,16.00
2010,11,23,07,11,17.10
2010,11,23,07,12,7.00
2010,11,23,07,13,8.10
2010,11,23,07,14,12.70
2010,11,23,07,15,13.00
2010,11,23,07,16,9.70
2010,11,23,07,17,10.30
2010,11,23,07,18,6.50
2010,11,23,07,19,8.00
2010,11,23,07,20,5.50
2010,11,23,07,21,10.60
2010,11,23,07,22,7.20
2010,11,23,07,23,13.80
2010,11,23,07,24,12.20
2010,11,23,07,25,10.50
2010,11,23,07,26,8.90
2010,11,23,07,27,10.50
2010,11,23,07,28,13.60
2010,11,23,07,29,6.80
2010,11,23,07,30,13.80
2010,11,23,07,31,7.50
2010,11,23,07,32,8.30
2010,11,23,07,33,12.40
2010,11,23,07,34,14.60
2010,11,23,07,35,11.50
2010,11,23,07,36,12.70
2010,11,23,07,37,14.70
2010,11,23,07,38,10.60
2010,11,23,07,39,10.10
2010,11,23,07,40,7.60
2010,11,23,07,41,5.10
2010,11,23,07,42,7.00
2010,11,23,07,43,5.40
2010,11,23,07,44,3.00
2010,11,23,07,45,11.00
2010,11,23,07,46,11.20
2010,11,23,07,47,7.20
2010,11,23,07,48,9.80
2010,11,23,07,49,15.90
2010,11,23,07,50,9.90
2010,11,23,07,51,8.10
2010,11,23,07,52,7.30
2010,11,23,07,53,7.20
2010,11,23,07,54,6.00
2010,11,23,07,55,12.10
2010,11,23,07,56,11.40
2010,11,23,07,57,8.30
2010,11,23,07,58,9.30
2010,11,23,07,59,8.30
2010,11,23,08,00,9.50
2010,11,23,08,01,10.30
2010,11,23,08,02,8.90
2010,11,23,08,03,4.10
2010,11,23,08,04,10.10
2010,11,23,08,05,14.30
2010,11,23,08,06,3.90
2010,11,23,08,07,3.90
2010,11,23,08,08,1.40
2010,11,23,08,09,8.50
2010,11,23,08,10,9.60
2010,11,23,08,11,11.70
2010,11,23,08,12,8.40
2010,11,23,08,13,5.00
2010,11,23,08,14,1.30
2010,11,23,08,15,1.40
2010,11,23,08,16,3.50
2010,11,23,08,17,6.00
2010,11,23,08,18,2.30
2010,11,23,08,19,2.60
2010,11,23,08,20,4.70
2010,11,23,08,21,5.10
2010,11,23,08,22,6.60
2010,11,23,08,23,6.70
2010,11,23,08,24,7.80
2010,11,23,08,25,1.50
2010,11,23,08,26,3.10
2010,11,23,08,27,4.80
2010,11,23,08,28,3.20
2010,11,23,08,29,3.70
2010,11,23,08,30,0.30
2010,11,23,08,31,2.70
2010,11,23,08,32,2.60
2010,11,23,08,33,5.30
2010,11,23,08,34,5.50
2010,11,23,08,35,4.80
2010,11,23,08,36,3.30
2010,11,23,08,37,4.00
2010,11,23,08,38,0.90
2010,11,23,08,39,0.80
2010,11,23,08,40,1.30
2010,11,23,08,41,1.20
2010,11,23,08,42,0.50
2010,11,23,08,43,0.90
2010,11,23,08,44,1.80
2010,11,23,08,45,3.90
2010,11,23,08,46,4.40
2010,11,23,08,47,6.10
2010,11,23,08,48,12.30
2010,11,23,08,49,11.80
2010,11,23,08,50,4.90
2010,11,23,08,51,0.30
2010,11,23,08,52,5.40
2010,11,23,08,53,6.70
2010,11,23,08,54,7.80
2010,11,23,08,55,1.50
2010,11,23,08,56,0.80
2010,11,23,08,57,1.50
2010,11,23,08,58,3.50
2010,11,23,08,59,0.80
2010,11,23,09,00,0.70
2010,11,23,09,01,4.10
2010,11,23,09,02,4.10
2010,11,23,09,03,7.60
2010,11,23,09,04,2.50
2010,11,23,09,05,6.40
2010,11,23,09,06,2.90
2010,11,23,09,07,1.80
2010,11,23,09,08,1.40
2010,11,23,09,09,2.60
2010,11,23,09,10,6.00
2010,11,23,09,11,4.30
2010,11,23,09,12,1.40
2010,11,23,09,13,3.30
2010,11,23,09,14,3.80
2010,11,23,09,15,1.60
2010,11,23,09,16,2.50
2010,11,23,09,17,1.60
2010,11,23,09,18,5.10
2010,11,23,09,19,4.80
2010,11,23,09,20,6.30
2010,11,23,09,21,4.70
2010,11,23,09,22,2.50
2010,11,23,09,23,4.30
2010,11,23,09,24,5.60
2010,11,23,09,25,3.40
2010,11,23,09,26,1.80
2010,11,23,09,27,1.30
2010,11,23,09,28,5.20
2010,11,23,09,29,2.40
2010,11,23,09,30,6.10
2010,11,23,09,31,1.90
2010,11,23,09,32,3.40
2010,11,23,09,33,5.10
2010,11,23,09,34,2.70
2010,11,23,09,35,3.10
2010,11,23,09,36,4.40
2010,11,23,09,37,3.60
2010,11,23,09,38,3.90
2010,11,23,09,39,5.40
2010,11,23,09,40,0.70
2010,11,23,09,41,0.10
2010,11,23,09,42,4.10
2010,11,23,09,43,5.30
2010,11,23,09,44,2.60
2010,11,23,09,45,3.30
2010,11,23,09,46,1.90
2010,11,23,09,47,7.40
2010,11,23,09,48,10.40
2010,11,23,09,49,8.00
2010,11,23,09,50,5.60
2010,11,23,09,51,3.40
2010,11,23,09,52,4.20
2010,11,23,09,53,4.40
2010,11,23,09,54,5.60
2010,11,23,09,55,4.70
2010,11,23,09,56,3.40
2010,11,23,09,57,1.60
2010,11,23,09,58,3.60
2010,11,23,09,59,0.70
2010,11,23,10,00,5.10
2010,11,23,10,01,6.30
2010,11,23,10,02,6.40
2010,11,23,10,03,6.80
2010,11,23,10,04,2.40
2010,11,23,10,05,5.20
2010,11,23,10,06,6.70
2010,11,23,10,07,7.10
2010,11,23,10,08,8.70
2010,11,23,10,09,9.40
2010,11,23,10,10,4.10
2010,11,23,10,11,1.10
2010,11,23,10,12,6.20
2010,11,23,10,13,3.10
2010,11,23,10,14,1.60
2010,11,23,10,15,4.00
2010,11,23,10,16,2.40
2010,11,23,10,17,1.80
2010,11,23,10,18,3.60
2010,11,23,10,19,4.30
2010,11,23,10,20,4.50
2010,11,23,10,21,6.70
2010,11,23,10,22,6.60
2010,11,23,10,23,8.60
2010,11,23,10,24,3.30
2010,11,23,10,25,5.20
2010,11,23,10,26,4.20
2010,11,23,10,27,4.40
2010,11,23,10,28,4.50
2010,11,23,10,29,2.70
2010,11,23,10,30,0.40
2010,11,23,10,31,4.60
2010,11,23,10,32,6.00
2010,11,23,10,33,8.00
2010,11,23,10,34,8.90
2010,11,23,10,35,6.30
2010,11,23,10,36,3.90
2010,11,23,10,37,4.00
2010,11,23,10,38,2.20
2010,11,23,10,39,1.90
2010,11,23,10,40,7.60
2010,11,23,10,41,1.90
2010,11,23,10,42,3.00
2010,11,23,10,43,3.50
2010,11,23,10,44,1.40
2010,11,23,10,45,3.10
2010,11,23,10,46,2.50
2010,11,23,10,47,4.00
2010,11,23,10,48,5.10
2010,11,23,10,49,7.60
2010,11,23,10,50,6.40
2010,11,23,10,51,8.60
2010,11,23,10,52,4.70
2010,11,23,10,53,6.00
2010,11,23,10,54,5.20
2010,11,23,10,55,4.60
2010,11,23,10,56,4.30
2010,11,23,10,57,8.40
2010,11,23,10,58,5.60
2010,11,23,10,59,1.70
2010,11,23,11,00,1.20
2010,11,23,11,01,2.70
2010,11,23,11,02,2.80
2010,11,23,11,03,1.60
2010,11,23,11,04,1.50
2010,11,23,11,05,0.30
2010,11,23,11,06,3.40
2010,11,23,11,07,3.80
2010,11,23,11,08,6.00
2010,11,23,11,09,5.80
2010,11,23,11,10,5.60
2010,11,23,11,11,4.20
2010,11,23,11,12,4.00
2010,11,23,11,13,4.70
2010,11,23,11,14,4.50
2010,11,23,11,15,6.40
2010,11,23,11,16,8.40
2010,11,23,11,17,11.40
2010,11,23,11,18,4.20
2010,11,23,11,19,3.10
2010,11,23,11,20,7.40
2010,11,23,11,21,4.50
2010,11,23,11,22,6.70
2010,11,23,11,23,5.60
2010,11,23,11,24,0.20
2010,11,23,11,25,0.90
2010,11,23,11,26,1.50
2010,11,23,11,27,1.30
2010,11,23,11,28,0.00
2010,11,23,11,29,1.00
2010,11,23,11,30,3.90
2010,11,23,11,31,9.30
2010,11,23,11,32,13.60
2010,11,23,11,33,3.70
2010,11,23,11,34,2.20
2010,11,23,11,35,1.30
2010,11,23,11,36,2.60
2010,11,23,11,37,4.50
2010,11,23,11,38,4.90
2010,11,23,11,39,5.10
2010,11,23,11,40,5.30
2010,11,23,11,41,5.30
2010,11,23,11,42,2.70
2010,11,23,11,43,2.60
2010,11,23,11,44,1.90
2010,11,23,11,45,4.20
2010,11,23,11,46,3.60
2010,11,23,11,47,2.70
2010,11,23,11,48,2.30
2010,11,23,11,49,0.90
2010,11,23,11,50,4.30
2010,11,23,11,51,5.40
2010,11,23,11,52,2.00
2010,11,23,11,53,2.00
2010,11,23,11,54,1.70
2010,11,23,11,55,2.40
2010,11,23,11,56,1.20
2010,11,23,11,57,0.20
2010,11,23,11,58,0.40
2010,11,23,11,59,0.10
2010,11,23,12,00,2.30
2010,11,23,12,01,0.50
2010,11,23,12,02,0.60
2010,11,23,12,03,1.70
2010,11,23,12,04,3.40
2010,11,23,12,05,7.80
2010,11,23,12,06,4.70
2010,11,23,12,07,1.50
2010,11,23,12,08,1.40
2010,11,23,12,09,2.90
2010,11,23,12,10,7.20
2010,11,23,12,11,4.50
2010,11,23,12,12,1.70
2010,11,23,12,13,1.50
2010,11,23,12,14,0.40
2010,11,23,12,15,1.00
2010,11,23,12,16,1.20
2010,11,23,12,17,2.30
2010,11,23,12,18,0.50
2010,11,23,12,19,2.30
2010,11,23,12,20,6.50
2010,11,23,12,21,5.40
2010,11,23,12,22,3.90
2010,11,23,12,23,6.00
2010,11,23,12,24,2.10
2010,11,23,12,25,3.90
2010,11,23,12,26,4.90
2010,11,23,12,27,4.00
2010,11,23,12,28,3.10
2010,11,23,12,29,4.40
2010,11,23,12,30,0.20
2010,11,23,12,31,1.20
2010,11,23,12,32,4.80
2010,11,23,12,33,5.20
2010,11,23,12,34,2.30
2010,11,23,12,35,5.80
2010,11,23,12,36,3.80
2010,11,23,12,37,6.50
2010,11,23,12,38,3.80
2010,11,23,12,39,3.90
2010,11,23,12,40,5.10
2010,11,23,12,41,4.30
2010,11,23,12,42,3.80
2010,11,23,12,43,2.90
2010,11,23,12,44,6.40
2010,11,23,12,45,7.90
2010,11,23,12,46,3.10
2010,11,23,12,47,2.80
2010,11,23,12,48,5.10
2010,11,23,12,49,3.00
2010,11,23,12,50,0.90
2010,11,23,12,51,0.50
2010,11,23,12,52,0.20
2010,11,23,12,53,0.50
2010,11,23,12,54,0.50
2010,11,23,12,55,4.30
2010,11,23,12,56,0.90
2010,11,23,12,57,2.00
2010,11,23,12,58,5.10
2010,11,23,12,59,8.90
2010,11,23,13,00,7.00
2010,11,23,13,01,3.00
2010,11,23,13,02,5.30
2010,11,23,13,03,4.40
2010,11,23,13,04,3.40
2010,11,23,13,05,3.30
2010,11,23,13,06,6.60
2010,11,23,13,07,3.60
2010,11,23,13,08,5.60
2010,11,23,13,09,0.20
2010,11,23,13,10,0.00
2010,11,23,13,11,0.30
2010,11,23,13,12,2.40
2010,11,23,13,13,3.90
2010,11,23,13,14,4.20
2010,11,23,13,15,2.90
2010,11,23,13,16,4.70
2010,11,23,13,17,8.10
2010,11,23,13,18,4.30
2010,11,23,13,19,3.70
2010,11,23,13,20,2.40
2010,11,23,13,21,3.00
2010,11,23,13,22,1.20
2010,11,23,13,23,6.90
2010,11,23,13,24,1.80
2010,11,23,13,25,0.90
2010,11,23,13,26,0.20
2010,11,23,13,27,0.70
2010,11,23,13,28,0.80
2010,11,23,13,29,2.10
2010,11,23,13,30,3.70
2010,11,23,13,31,1.10
2010,11,23,13,32,0.80
2010,11,23,13,33,0.20
2010,11,23,13,34,0.30
2010,11,23,13,35,0.00
2010,11,23,13,36,0.00
2010,11,23,13,37,0.90
2010,11,23,13,38,6.00
2010,11,23,13,39,7.50
2010,11,23,13,40,6.70
2010,11,23,13,41,1.10
2010,11,23,13,42,0.50
2010,11,23,13,43,0.90
2010,11,23,13,44,2.10
2010,11,23,13,45,3.40
2010,11,23,13,46,1.50
2010,11,23,13,47,3.20
2010,11,23,13,48,2.10
2010,11,23,13,49,3.00
2010,11,23,13,50,1.90
2010,11,23,13,51,3.50
2010,11,23,13,52,3.50
2010,11,23,13,53,1.20
2010,11,23,13,54,0.20
2010,11,23,13,55,2.50
2010,11,23,13,56,7.50
2010,11,23,13,57,6.20
2010,11,23,13,58,4.10
2010,11,23,13,59,5.00
2010,11,23,14,00,2.70
2010,11,23,14,01,3.50
2010,11,23,14,02,0.90
2010,11,23,14,03,1.00
2010,11,23,14,04,0.40
2010,11,23,14,05,0.90
2010,11,23,14,06,1.20
2010,11,23,14,07,0.50
2010,11,23,14,08,0.50
2010,11,23,14,09,0.20
2010,11,23,14,10,0.30
2010,11,23,14,11,0.90
2010,11,23,14,12,2.40
2010,11,23,14,13,2.30
2010,11,23,14,14,1.20
2010,11,23,14,15,0.80
2010,11,23,14,16,0.70
2010,11,23,14,17,0.40
2010,11,23,14,18,1.80
2010,11,23,14,19,2.40
2010,11,23,14,20,0.10
2010,11,23,14,21,0.60
2010,11,23,14,22,0.50
2010,11,23,14,23,6.70
2010,11,23,14,24,3.10
2010,11,23,14,25,1.90
2010,11,23,14,26,1.50
2010,11,23,14,27,1.70
2010,11,23,14,28,0.50
2010,11,23,14,29,1.40
2010,11,23,14,30,3.00
2010,11,23,14,31,0.80
2010,11,23,14,32,0.20
2010,11,23,14,33,1.20
2010,11,23,14,34,1.60
2010,11,23,14,35,1.90
2010,11,23,14,36,2.00
2010,11,23,14,37,0.50
2010,11,23,14,38,4.70
2010,11,23,14,39,1.90
2010,11,23,14,40,0.10
2010,11,23,14,41,0.80
2010,11,23,14,42,1.90
2010,11,23,14,43,2.10
2010,11,23,14,44,1.70
2010,11,23,14,45,4.50
2010,11,23,14,46,1.70
2010,11,23,14,47,0.80
2010,11,23,14,48,1.00
2010,11,23,14,49,2.10
2010,11,23,14,50,1.60
2010,11,23,14,51,0.60
2010,11,23,14,52,6.70
2010,11,23,14,53,2.40
2010,11,23,14,54,0.50
2010,11,23,14,55,0.20
2010,11,23,14,56,0.70
2010,11,23,14,57,0.00
2010,11,23,14,58,1.30
2010,11,23,14,59,0.60
2010,11,23,15,00,3.50
2010,11,23,15,01,2.00
2010,11,23,15,02,0.60
2010,11,23,15,03,0.10
2010,11,23,15,04,0.60
2010,11,23,15,05,0.40
2010,11,23,15,06,1.00
2010,11,23,15,07,0.60
2010,11,23,15,08,0.10
2010,11,23,15,09,0.00
2010,11,23,15,10,0.00
2010,11,23,15,11,0.00
2010,11,23,15,12,0.00
2010,11,23,15,13,0.10
2010,11,23,15,14,0.00
2010,11,23,15,15,0.10
2010,11,23,15,16,0.00
2010,11,23,15,17,0.00
2010,11,23,15,18,1.40
2010,11,23,15,19,0.60
2010,11,23,15,20,0.00
2010,11,23,15,21,0.00
2010,11,23,15,22,0.10
2010,11,23,15,23,0.00
2010,11,23,15,24,0.00
2010,11,23,15,25,0.00
2010,11,23,15,26,0.00
2010,11,23,15,27,0.00
2010,11,23,15,28,0.00
2010,11,23,15,29,0.80
2010,11,23,15,30,0.50
2010,11,23,15,31,0.20
2010,11,23,15,32,0.00
2010,11,23,15,33,0.40
2010,11,23,15,34,0.10
2010,11,23,15,35,0.10
2010,11,23,15,36,0.10
2010,11,23,15,37,0.00
2010,11,23,15,38,0.00
2010,11,23,15,39,0.00
2010,11,23,15,40,0.00
2010,11,23,15,41,0.00
2010,11,23,15,42,0.10
2010,11,23,15,43,0.10
2010,11,23,15,44,0.20
2010,11,23,15,45,0.60
2010,11,23,15,46,1.90
2010,11,23,15,47,0.20
2010,11,23,15,48,0.00
2010,11,23,15,49,0.00
2010,11,23,15,50,0.00
2010,11,23,15,51,0.00
2010,11,23,15,52,0.00
2010,11,23,15,53,0.00
2010,11,23,15,54,0.00
2010,11,23,15,55,0.00
2010,11,23,15,56,0.00
2010,11,23,15,57,0.00
2010,11,23,15,58,0.00
2010,11,23,15,59,0.00
2010,11,23,16,00,0.00
2010,11,23,16,01,0.00
2010,11,23,16,02,0.00
2010,11,23,16,03,0.00
2010,11,23,16,04,0.00
2010,11,23,16,05,0.00
2010,11,23,16,06,0.00
2010,11,23,16,07,0.00
2010,11,23,16,08,0.00
2010,11,23,16,09,0.00
2010,11,23,16,10,0.00
2010,11,23,16,11,0.00
2010,11,23,16,12,0.00
2010,11,23,16,13,0.00
2010,11,23,16,14,0.00
2010,11,23,16,15,0.10
2010,11,23,16,16,0.00
2010,11,23,16,17,0.00
2010,11,23,16,18,0.00
2010,11,23,16,19,0.00
2010,11,23,16,20,0.00
2010,11,23,16,21,0.00
2010,11,23,16,22,0.00
2010,11,23,16,23,0.00
2010,11,23,16,24,0.00
2010,11,23,16,25,0.00
2010,11,23,16,26,0.00
2010,11,23,16,27,0.00
2010,11,23,16,28,0.00
2010,11,23,16,29,0.00
2010,11,23,16,30,0.00
2010,11,23,16,31,0.00
2010,11,23,16,32,0.00
2010,11,23,16,33,0.00
2010,11,23,16,34,0.00
2010,11,23,16,35,0.00
2010,11,23,16,36,0.00
2010,11,23,16,37,0.00
2010,11,23,16,38,0.00
2010,11,23,16,39,0.00
2010,11,23,16,40,0.10
2010,11,23,16,41,0.00
2010,11,23,16,42,0.00
2010,11,23,16,43,0.00
2010,11,23,16,44,0.00
2010,11,23,16,45,0.00
2010,11,23,16,46,0.00
2010,11,23,16,47,0.00
2010,11,23,16,48,0.00
2010,11,23,16,49,0.00
2010,11,23,16,50,0.00
2010,11,23,16,51,0.00
2010,11,23,16,52,0.00
2010,11,23,16,53,0.00
2010,11,23,16,54,0.00
2010,11,23,16,55,0.00
2010,11,23,16,56,0.00
2010,11,23,16,57,0.00
2010,11,23,16,58,0.00
2010,11,23,16,59,0.00
2010,11,23,17,00,0.00
2010,11,23,17,01,0.00
2010,11,23,17,02,0.00
2010,11,23,17,03,0.00
2010,11,23,17,04,0.00
2010,11,23,17,05,0.00
2010,11,23,17,06,0.00
2010,11,23,17,07,0.00
2010,11,23,17,08,0.00
2010,11,23,17,09,0.00
2010,11,23,17,10,0.00
2010,11,23,17,11,0.00
2010,11,23,17,12,0.00
2010,11,23,17,13,0.00
2010,11,23,17,14,0.00
2010,11,23,17,15,0.00
2010,11,23,17,16,0.00
2010,11,23,17,17,0.00
2010,11,23,17,18,0.20
2010,11,23,17,19,0.20
2010,11,23,17,20,0.60
2010,11,23,17,21,0.10
2010,11,23,17,22,0.10
2010,11,23,17,23,0.00
2010,11,23,17,24,0.00
2010,11,23,17,25,0.00
2010,11,23,17,26,0.00
2010,11,23,17,27,0.00
2010,11,23,17,28,0.00
2010,11,23,17,29,0.00
2010,11,23,17,30,0.00
2010,11,23,17,31,0.00
2010,11,23,17,32,0.00
2010,11,23,17,33,0.00
2010,11,23,17,34,0.00
2010,11,23,17,35,0.00
2010,11,23,17,36,0.00
2010,11,23,17,37,0.00
2010,11,23,17,38,0.00
2010,11,23,17,39,0.00
2010,11,23,17,40,0.00
2010,11,23,17,41,0.00
2010,11,23,17,42,0.00
2010,11,23,17,43,0.00
2010,11,23,17,44,0.00
2010,11,23,17,45,0.10
2010,11,23,17,46,0.00
2010,11,23,17,47,0.00
2010,11,23,17,48,0.00
2010,11,23,17,49,0.00
2010,11,23,17,50,0.00
2010,11,23,17,51,0.00